DMSP 5D-2 F13 DEB, 42327

Orbit data source: Space-Track

DMSP 5D-2 F13 DEB, 42327 is space debris in SSO originally from a launch on Fri, 24 Mar 1995 UTC launched from the Air Force Western Test Range (AFWTR). Debris objects in space refer to the collection of defunct objects orbiting the Earth. Examples of debris include non-operational satellites, rocket bodies, and fragments generated from explosions, collisions, or faulty payload assembly.

Loading next visibility...
Identifier
42327, 1995-015JV
Orbit
SSO
Country
Flag of USUS
Related business
Manufacturer
Unknown
Mission
Spacecraft
Bus & Motor
Unknown
Mass
Unknown
Launch date (UTC)
1995-03-24 (31 years ago)
Launch vehicle
Unknown
Launch site
Air Force Western Test Range (AFWTR)
Object type
Payload
Rocket body
Debris
Shape & HBR
Unknown shape, 0.1 m
Radar Cross Section
Small (<0.1 m²)

Expand to show TLE details & history
Last TLE update: 20 hours ago

TLE from 20 hours ago
0 DMSP 5D-2 F13 DEB
1 42327U 95015JV  26121.04790801  .00004774  00000-0  15163-2 0  9999
2 42327  98.6720 160.4616 0007710 135.8964 224.2840 14.40411447546925
Epoch: 2026-05-01T01:08Z
TLE epoch observation values (Epoch: 2026-05-01T01:08:59.252Z)
Latitude
0.00001°
Longitude
-75.77105°
Altitude
764.024 km
Speed
7.47 km/s
True Right ascension
10h 41m 50s
True Declination
0° 00' 00"
Sunlit
Object was in full shadow at epoch
Visualization orbit readout
Latitude
Unknown
Longitude
Unknown
Altitude
Unknown
Speed
Unknown
Apparent Right ascension
Unknown
Apparent Declination
Unknown
Sunlit
N/A
Visualization observer readout
Local Sidereal Time
04:24:41
Azimuth
Unknown
Elevation
Unknown
Doppler factor
Unknown
Orbital elements
Apogee altitude
759.768 km
Perigee altitude
748.77 km
Semi-major axis
7,132.406 km
Eccentricity
0.00077
Inclination
98.672°
RAAN
160.4616°
Arg. of periapsis
135.8964°
True anomaly
224.22236°
Mean anomaly
224.284°
Eccentric anomaly
224.25317°
Mean motion
3.60321 °/min
Orbital period
99.91 mins
BSTAR
0.0015163

Documentation

Showing up to 5 results
|